Regional Weather Roundup
Issued by NWS

Home | Current Version | Previous Version | Graphics & Text | Print | Product List | Glossary On
Versions: 1 2 3 4 5 6 7 8 9 10 11 12 13 14 15 16 17 18 19 20 21 22 23 24 25 26 27 28 29 30 31 32 33 34 35 36 37 38 39 40 41 42 43 44 45 46 47 48 49 50
000
ASUS43 KMPX 280610
RWRMN
WEATHER ROUNDUP FOR MINNESOTA
NATIONAL WEATHER SERVICE TWIN CITIES/CHANHASSEN MN
1200 AM CST WED JAN 28 2015


NOTE: "FAIR" INDICATES FEW OR NO CLOUDS BELOW 12,000 FEET WITH NO
SIGNIFICANT WEATHER AND/OR OBSTRUCTIONS TO VISIBILITY. N/A MEANS
CURRENT SKY AND/OR WEATHER CONDITIONS ARE NOT AVAILABLE.

MNZ060>063-068>070-280700-
   Twin Cities Metro

CITY           SKY/WX    TMP DP  RH WIND       PRES   REMARKS
TWIN CITIES    CLOUDY    30  25  81 SE12      30.13R WCI  20
6HR MIN TEMP:  30; 6HR MAX TEMP:  32;

ST PAUL        CLOUDY    30  25  81 S12       30.15R WCI  20
CRYSTAL        CLOUDY    32  27  81 SE12      30.11R WCI  23
BLAINE         CLOUDY    32  28  86 SE12      30.12R WCI  23
LAKEVILLE      CLOUDY    28  27  93 S8        30.12S WCI  20
EDEN PRAIRIE   CLOUDY    31  26  82 SE15      30.11R WCI  20
6HR MIN TEMP:  31; 6HR MAX TEMP:  33;

SOUTH ST PAUL  CLOUDY    31  26  82 S8        30.14R WCI  23
LAKE ELMO      CLOUDY    30  27  86 S13       30.15R WCI  20
$$
MNZ001>005-007-008-013>017-022>024-027-028-280700-
   Northwest Minnesota

CITY           SKY/WX    TMP DP  RH WIND       PRES   REMARKS
BEMIDJI        CLOUDY    29  26  87 S12       29.96F WCI  20
HALLOCK        CLOUDY    32  30  93 S15       29.91S WCI  22
ROSEAU         MOCLDY    28  25  86 S10       29.94S WCI  19
WARROAD        MOCLDY    28  25  86 SE7       29.95S WCI  21
THIEF RVR FALL CLOUDY    30  28  93 SE10      29.93S WCI  21
CROOKSTON      CLOUDY    32  30  93 S15       29.92F WCI  22
FOSSTON        MOCLDY    28  25  86 SE8       29.94S WCI  20
DETROIT LAKES  CLOUDY    32  30  93 S16       29.95S WCI  21
MOORHEAD       CLOUDY    36  36 100 S20G26    29.92F
PARK RAPIDS    CLOUDY    31  27  85 S16       29.97F WCI  20
MAHNOMEN       CLOUDY    31  28  90 S10       29.92F WCI  22
$$
MNZ006-009>011-018-025>026-280700-
   North Central Minnesota

CITY           SKY/WX    TMP DP  RH WIND       PRES   REMARKS
BAUDETTE       CLOUDY    29  23  78 SE5       29.96S WCI  24
FLAG ISLAND    MOCLDY    28  25  86 SE14      29.94F WCI  17
INTL FALLS     CLOUDY    27  24  89 SE6       29.99F WCI  20
6HR MIN TEMP:  27; 6HR MAX TEMP:  30; 6HR PCP:  0.05;

WASKISH        MOCLDY    28  27  93 S5        29.97R WCI  23
BIG FORK       CLOUDY    28  25  86 S7        30.00S WCI  21
LONGVILLE      CLOUDY    28  27  93 S12       30.01S WCI  18
GRAND RAPIDS   CLOUDY    28  21  74 S13       30.02S WCI  18
CRANE LAKE     CLOUDY    27  25  93 CALM      30.05F
ORR            MOCLDY    27  21  80 S7        30.00S WCI  19
COOK           MOCLDY    27  23  86 S5        30.04S WCI  21
WALKER         CLOUDY    30  26  84 SE12G18   29.99S WCI  20
$$
MNZ012-019>021-037-280700-
   Northeast Minnesota

CITY           SKY/WX    TMP DP  RH WIND       PRES   REMARKS
DULUTH         CLOUDY    27  22  81 S9        30.06F WCI  18
6HR MIN TEMP:  27; 6HR MAX TEMP:  27;

ELY            CLOUDY    27  23  86 S7        30.04F WCI  19
HIBBING        CLOUDY    28  21  75 S8        30.04S WCI  20
EVELETH        MOCLDY    28  25  86 S6        30.06F WCI  22
DULUTH HARBOR  CLOUDY    30  25  80 CALM      30.13F
TWO HARBORS    CLOUDY    30  25  80 S5        30.08F WCI  25
SILVER BAY     CLOUDY    28  25  86 S5        30.08F WCI  23
GRAND MARAIS     N/A     32  26  78 SW14      30.13F WCI  22
G MARAIS ARPRT   N/A     25  19  80 S5        30.07F WCI  19
$$
MNZ029>031-032-039>041-046>048-054>057-064-280700-
   West Central Minnesota

CITY           SKY/WX    TMP DP  RH WIND       PRES   REMARKS
FERGUS FALLS   CLOUDY    34  30  86 SE16      29.97S WCI  23
WHEATON        PTCLDY    30  28  93 SE17      29.95S WCI  18
MORRIS         MOCLDY    34  30  86 SE18G25   29.95F FOG     WCI  23
ALEXANDRIA     CLOUDY    32  29  88 SE16      29.98F WCI  21
ELBOW LAKE     CLOUDY    32  31  96 SE21G26   29.94F WCI  20
WADENA         CLOUDY    30  28  93 SE12      29.98F WCI  21
GLENWOOD       CLOUDY    32  30  93 SE16      29.99F WCI  21
APPLETON       PTCLDY    34  30  86 SE13      29.96F WCI  25
BENSON         PTCLDY    34  30  86 S17G24    29.97F WCI  23
ORTONVILLE     PTCLDY    32  30  93 SE14      29.93F WCI  22
MADISON        PTCLDY    36  36 100 SE16      29.95F
WILLMAR        CLOUDY    34  30  86 SE20      30.02F WCI  22
$$
MNZ033>034-036-042>043-049>051-058-059-280700-
   Central Minnesota

CITY           SKY/WX    TMP DP  RH WIND       PRES   REMARKS
ST CLOUD       CLOUDY    31  27  85 SE12      30.07F WCI  22
6HR MIN TEMP:  31; 6HR MAX TEMP:  32;

SAUK CENTRE    CLOUDY    32  30  93 SE15      30.02F WCI  21
PAYNESVILLE    CLOUDY    30  29  95 E13       30.04F WCI  20
AITKIN         CLOUDY    32  25  74 S10       30.04S WCI  24
PINE RIVER     CLOUDY    30  27  86 S15       30.05S WCI  19
BRAINERD       CLOUDY    30  26  85 S13       30.04F WCI  20
STAPLES        CLOUDY    30  27  86 SE9       30.01F WCI  22
LONG PRAIRIE   CLOUDY    32  30  93 SE12      30.02F WCI  23
LITTLE FALLS   CLOUDY    32  27  80 SE9       30.05F WCI  24
LITCHFIELD     CLOUDY    34  32  93 SE9       30.06S WCI  26
BUFFALO        CLOUDY    32  28  86 SE7       30.11S WCI  25
MAPLE LAKE     CLOUDY    32  30  92 SE8       30.09S WCI  25
$$
MNZ037-044-045-052-053-280700-
   East Central Minnesota

CITY           SKY/WX    TMP DP  RH WIND       PRES   REMARKS
PRINCETON      CLOUDY    32  27  80 S8        30.10F WCI  25
MORA           CLOUDY    28  25  86 S8        30.12R WCI  20
CAMBRIDGE      CLOUDY    30  23  74 S10       30.09S WCI  21
RUSH CITY      CLOUDY    28  24  84 S8        30.13R WCI  20
MOOSE LAKE     CLOUDY    28  23  80 S8G16     30.07S WCI  20
HINCKLEY       CLOUDY    30  27  86 S9        30.11S WCI  22
CLOQUET        CLOUDY    27  21  80 S6        30.07S WCI  20
MCGREGOR       CLOUDY    30  27  86 S10       30.06F WCI  21
$$
MNZ071>073-080-081-089-090-097-098-280700-
   Southwest Minnesota

CITY           SKY/WX    TMP DP  RH WIND       PRES   REMARKS
MONTEVIDEO     CLEAR     32  32 100 S16       29.98F WCI  21
GRANITE FALLS  PTCLDY    32  31  96 SE13      30.00F WCI  23
CANBY          CLEAR     32  32  99 SE8       29.94F FOG     WCI  25
MARSHALL       CLEAR     34  28  80 SE13      29.97F WCI  25
REDWOOD FALLS  CLOUDY    33  31  92 SE17      30.01F WCI  22
OLIVIA         CLOUDY    32  32 100 SE14G22   30.02F WCI  22
PIPESTONE      PTCLDY    36  32  87 S14       29.93S
WINDOM         PTCLDY    32  30  93 SE15      29.99F FOG     WCI  22
WORTHINGTON    PTCLDY    34  28  80 S13G21    29.97F WCI  25
JACKSON        PTCLDY    32  30  93 S16       30.01F WCI  21
TRACY          CLEAR     34  32  92 S12G17    29.97S WCI  25
SLAYTON        FAIR      33  31  92 S16       29.96S WCI  23
$$
MNZ065>067-074>077-082>085-091>093-280700-
   South Central Minnesota

CITY           SKY/WX    TMP DP  RH WIND       PRES   REMARKS
MANKATO        CLOUDY    32  27  80 SE14      30.09R WCI  22
NEW ULM        CLOUDY    32  30  93 SE14      30.05F WCI  22
ST JAMES       CLOUDY    34  30  86 SE17      30.06F WCI  23
FAIRMONT       CLOUDY    30  27  86 S17G25    30.05F WCI  18
GLENCOE        CLOUDY    33  32  94 SE9       30.08S WCI  25
FARIBAULT      CLOUDY    30  27  86 SE9       30.12S WCI  22
OWATONNA       CLOUDY    30  27  86 SE8G18    30.11S WCI  23
WASECA         CLOUDY    32  30  93 SE9       30.12R WCI  24
ALBERT LEA     CLOUDY    28  28 100 SE12      30.10S FOG     WCI  18
$$
MNZ078>079-086>088-094>096-280700-
   Southeast Minnesota

CITY           SKY/WX    TMP DP  RH WIND       PRES   REMARKS
ROCHESTER      CLOUDY    27  24  89 S16       30.13S WCI  15
6HR MIN TEMP:  27; 6HR MAX TEMP:  29;

RED WING       CLOUDY    30  25  80 S8        30.15S WCI  23
STANTON        CLOUDY    32  27  80 SE8       30.12R WCI  25
DODGE CENTER   CLOUDY    28  27  93 S15       30.11S WCI  17
WINONA         CLOUDY    30  25  80 S6        30.19F WCI  24
AUSTIN         CLOUDY    28  25  86 S9        30.12S WCI  20
PRESTON        CLOUDY    26  23  87 S13       30.15S WCI  15
$$
ABBREVIATIONS USED IN REMARKS
   TC - TEMPERATURES IN CELSIUS
  WCI - WIND CHILL INDEX
   HX - HEAT INDEX
  VSB - VISIBILITY
$$


USA.gov is the U.S. government's official web portal to all federal, state and local government web resources and services.